Weather in Nurmuchash

Russia / Mari El Republic     56°10′35″N   48°54′47″E
temp.,
°C
wind,
m/s
gust,
m/s
humid.,
%
clouds,
%
prec.,
mm/h
press.,
hPa
HPBL,
m
27 february, sat
sat2700:00−13se71494100 5.9 1000691
03:00−12se61194100 7.1 999500
06:00−12ese5995100 0.6 997369
09:00−11e5894100 1.8 998366
12:00−10ene5893100 0.8 998502
15:00−10ne5893100 1.5 1000622
18:00−12nne51093100 0.5 1002562
21:00−13nne4109399 0.6 1004408
28 february, sun
sun2800:00−15n499599 0.0 1006265
03:00−18n499590 0.1 1008217
06:00−20n499654 0.0 1009209
09:00−18n489350 0.0 1010271
12:00−14n478941 0.0 1011424
15:00−14n478962 0.0 1013506
18:00−19nnw339794 0.0 101464
21:00−22n239757 0.0 101726
1 march, mon
mon100:00−22n239810 0.0 101825
03:00−23n22985 0.0 102020
06:00−23n22980 0.0 102220
09:00−19n12930 0.0 1023141
12:00−13w118545 0.0 1022333
15:00−11w248764 0.0 1022461
18:00−16sw339783 0.0 102136
21:00−19sw359655 0.0 102080
2 march, tue
tue200:00−18ssw489843 0.0 1017166
03:00−16ssw5109771 0.1 1013249
06:00−13ssw51195100 0.4 1009367
09:00−9ssw61093100 1.1 1005419
12:00−5ssw61095100 0.7 1002487
15:00−2s5996100 1.6 999484
18:00−1sw2499100 1.1 999203
21:00−1w3599100 1.9 999243
3 march, wed
wed300:00−3n61195100 1.0 999534
03:00−8nnw4895100 1.2 1001243
06:00−10nnw3797100 0.0 1002191
09:00−6nnw499497 0.1 1003366
12:00−3nnw589099 0.1 1005770
15:00−3nnw599099 0.3 1006811
18:00−6nnw5119098 0.1 1007642
21:00−10nw389370 0.1 1009156